Les Deux-Alpes, France 16 day weather forecast

Slopes altitude range 1300 m - 3570m

Number of lifts: 51 Pistes: 225km

In some cases the lift and piste totals shown are for the ski domain (e.g. Three Valleys) rather than individual resort (e.g. Courchevel)

Overview

The 16 day weather forecast is fully updated 4 times every day.

    • Sat 20 APR 2019
    • Sat 20
    • 4C 14C
    • Sun 21 APR 2019
    • Sun 21
    • 5C 12C
    • Mon 22 APR 2019
    • Mon 22
    • 5C 15C
    • Tue 23 APR 2019
    • Tue 23
    • 5C 12C
    • Wed 24 APR 2019
    • Wed 24
    • 4C 9C
    • Thu 25 APR 2019
    • Thu 25
    • 3C 10C
    • Fri 26 APR 2019
    • Fri 26
    • -3C 0C
    • Sat 27 APR 2019
    • Sat 27
    • -2C 2C
    • Sun 28 APR 2019
    • Sun 28
    • 2C 7C
    • Mon 29 APR 2019
    • Mon 29
    • 5C 12C
    • Tue 30 APR 2019
    • Tue 30
    • 3C 14C
    • Wed 01 MAY 2019
    • Wed 01
    • 6C 13C
    • Thu 02 MAY 2019
    • Thu 02
    • 6C 14C
    • Fri 03 MAY 2019
    • Fri 03
    • 5C 14C
    • Sat 04 MAY 2019
    • Sat 04
    • 6C 17C
    • Sun 05 MAY 2019
    • Sun 05
    • 7C 16C

Date:

Time Type 0°C level Temp Chill Snow Cloud Speed Gust Dir Press
3:00 2544m 3°C 3_5 0cm 0% 5mph 5mph 1027mB
6:00 2569m 2°C 2_5 0cm 0% 5mph 5mph 1027mB
9:00 2539m 4°C 4_2 0cm 1% 2mph 2mph 1026mB
12:00 2699m 14°C 14_2 0cm 3% 2mph 3mph 1024mB
15:00 2796m 15°C 15_3 0cm 11% 3mph 5mph 1023mB
18:00 2732m 15°C 15_3 0cm 19% 3mph 4mph 1022mB
21:00 2734m 5°C 5_5 0cm 100% 5mph 6mph 1024mB
0:00 2658m 4°C 4_5 0cm 100% 5mph 5mph 1024mB
3:00 2635m 4°C 4_5 0cm 100% 5mph 5mph 1022mB
6:00 2652m 3°C 3_5 0cm 100% 5mph 5mph 1021mB
9:00 2556m 5°C 5_3 0cm 99% 3mph 4mph 1020mB
12:00 2618m 12°C 12_1 0cm 98% 1mph 3mph 1018mB
15:00 2595m 12°C 12_3 0cm 98% 3mph 5mph 1016mB
18:00 2596m 12°C 12_4 0cm 99% 4mph 6mph 1015mB
21:00 2794m 3°C 3_6 0cm 73% 6mph 6mph 1016mB
0:00 2777m 3°C 3_6 0cm 81% 6mph 6mph 1015mB
3:00 2797m 2°C 2_6 0cm 95% 6mph 6mph 1012mB
6:00 2899m 2°C 2_6 0cm 98% 6mph 9mph 1010mB
9:00 2955m 5°C 5_5 0cm 98% 5mph 7mph 1008mB
12:00 2880m 15°C 15_4 0cm 70% 4mph 5mph 1005mB
15:00 2877m 14°C 14_5 0cm 100% 5mph 6mph 1002mB
18:00 2802m 14°C 14_5 0cm 100% 5mph 7mph 1002mB
21:00 2699m 5°C 5_6 0cm 100% 6mph 8mph 1003mB
0:00 2654m 5°C 5_5 0cm 100% 5mph 6mph 1002mB
3:00 2563m 4°C 4_5 0cm 100% 5mph 5mph 1001mB
6:00 2625m 4°C 4_4 0cm 100% 4mph 5mph 1001mB
9:00 2600m 4°C 4_1 0cm 100% 1mph 3mph 1001mB
12:00 2652m 12°C 12_3 0cm 98% 3mph 4mph 1000mB
15:00 2706m 10°C 10_3 0cm 100% 3mph 5mph 999mB
18:00 2709m 11°C 11_5 0cm 90% 5mph 8mph 1001mB
21:00 2679m 5°C 5_7 0cm 77% 7mph 12mph 1004mB
0:00 2594m 5°C 5_8 0cm 87% 8mph 14mph 1006mB
3:00 2590m 3°C 3_8 0cm 62% 8mph 13mph 1005mB
6:00 2591m 3°C 3_7 0cm 67% 7mph 12mph 1006mB
9:00 2558m 4°C 4_12 0cm 95% 12mph 20mph 1007mB
12:00 2435m 9°C 9_9 0cm 97% 9mph 15mph 1009mB
15:00 2430m 6°C 6_9 0cm 100% 9mph 14mph 1009mB
18:00 2456m 6°C 6_8 0cm 100% 8mph 14mph 1010mB
21:00 2409m 4°C 4_8 0cm 100% 8mph 14mph 1013mB
0:00 2368m 3°C 3_8 0cm 100% 8mph 14mph 1013mB
3:00 2331m 3°C 3_9 0cm 100% 9mph 14mph 1012mB
6:00 2337m 2°C 2_9 0cm 67% 9mph 14mph 1012mB
9:00 2413m 3°C 3_10 0cm 38% 10mph 15mph 1011mB
12:00 2546m 10°C 10_12 0cm 39% 12mph 19mph 1010mB
15:00 2527m 11°C 11_12 0cm 38% 12mph 18mph 1010mB
18:00 2132m 11°C 11_4 0cm 59% 4mph 7mph 1011mB
21:00 1869m 1°C 1_4 13cm 100% 4mph 7mph 1013mB
0:00 1587m -1°C -1_6 11cm 100% 6mph 9mph 1013mB
3:00 1390m -2°C -2_8 5cm 100% 8mph 12mph 1013mB
6:00 1244m -3°C -3_9 4cm 100% 9mph 14mph 1015mB
9:00 1422m -3°C -3_11 1cm 100% 11mph 16mph 1016mB
12:00 1626m 0°C 0_11 1cm 100% 11mph 17mph 1016mB
15:00 1590m 0°C 0_11 1cm 98% 11mph 18mph 1016mB
18:00 1508m 0°C 0_11 1cm 98% 11mph 19mph 1019mB
21:00 1490m -2°C -2_12 1cm 93% 12mph 23mph 1021mB
0:00 1495m -2°C -2_12 1cm 93% 12mph 22mph 1022mB
3:00 1392m -2°C -2_11 1cm 96% 11mph 19mph 1022mB
6:00 1367m -2°C -2_11 1cm 98% 11mph 18mph 1023mB
9:00 1644m -2°C -2_11 0cm 96% 11mph 16mph 1022mB
12:00 1800m 2°C 2_10 0cm 94% 10mph 15mph 1021mB
15:00 1886m 2°C 2_9 0cm 83% 9mph 13mph 1021mB
18:00 1889m 2°C 2_7 0cm 82% 7mph 12mph 1021mB
21:00 1580m -1°C -1_5 0cm 75% 5mph 6mph 1023mB
0:00 1558m -1°C -1_5 0cm 87% 5mph 5mph 1023mB
3:00 1515m -1°C -1_4 0cm 31% 4mph 5mph 1022mB
6:00 2924m -1°C -1_4 0cm 20% 4mph 4mph 1022mB
9:00 2971m 2°C 2_3 0cm 4% 3mph 4mph 1020mB
12:00 2980m 7°C 7_5 0cm 7% 5mph 6mph 1019mB
15:00 2937m 8°C 8_5 0cm 30% 5mph 7mph 1017mB
18:00 3033m 8°C 8_4 0cm 35% 4mph 5mph 1017mB
21:00 3159m 3°C 3_4 0cm 74% 4mph 5mph 1019mB
0:00 3085m 3°C 3_4 0cm 87% 4mph 5mph 1019mB
3:00 2976m 2°C 2_4 0cm 38% 4mph 5mph 1018mB
6:00 2924m 2°C 2_3 0cm 19% 3mph 4mph 1018mB
9:00 2886m 5°C 5_3 0cm 0% 3mph 3mph 1016mB
12:00 2840m 12°C 12_5 0cm 0% 5mph 4mph 1014mB
15:00 2866m 12°C 12_5 0cm 19% 5mph 6mph 1013mB
18:00 2901m 12°C 12_4 0cm 24% 4mph 5mph 1013mB
21:00 3023m 4°C 4_3 0cm 4% 3mph 4mph 1015mB
0:00 3025m 4°C 4_4 0cm 2% 4mph 5mph 1014mB
Afternoon 0mm 0 2890m 14°C 14_5 0cm 4% 5mph 7mph 1011mB
Morning 0.0416667mm 0.375 3084m 6°C 6_6 0cm 69% 6mph 10mph 1011mB
Afternoon 0mm 0 2879m 13°C 13_9 0cm 100% 9mph 13mph 1008mB
Morning 0.171875mm 0 2991m 7°C 7_7 0cm 97% 7mph 13mph 1009mB
Afternoon 0.364583mm 4.3125 3142m 14°C 14_9 0cm 31% 9mph 13mph 1009mB
Morning 1.05729mm 12.6875 3068m 6°C 6_5 0cm 30% 5mph 7mph 1012mB
Afternoon 0.0677083mm 0.8125 2994m 14°C 14_7 0cm 11% 7mph 10mph 1011mB
Morning 0.177083mm 2.125 3200m 6°C 6_4 0cm 17% 4mph 4mph 1013mB
Afternoon 0mm 0 3121m 17°C 17_5 0cm 4% 5mph 5mph 1011mB
Morning 0mm 0 3345m 7°C 7_4 0cm 18% 4mph 4mph 1013mB
Afternoon 0.0625mm 0.75 3156m 16°C 16_9 0cm 81% 9mph 12mph 1011mB
Morning 0.453125mm 5.4375 3169m 6°C 6_4 0cm 24% 4mph 4mph 1013mB

16 day outlook at a glance

Forecast issued: 20/04/2019 06:16:24

Chat

Your comments and questions. In a resort? Let us know what it's like!


Characters left 250

For terms and conditions see Readers Comments on the Cookie and privacy policy page.